sat.trackr.live / text

‹ back to catalog

STARLINK-33917

NORAD 64181 · 2025-113M

PAYLOAD ACTIVE UNKNOWN

§ Identity

Operator
Country
US
Launch date
2025-05-28
Launch site
AFETR
Launch vehicle
Mass (kg)
RCS (m²)

Purposes: comms

External: N2YO · Heavens-Above · Gunter

§ Orbital elements

Epoch: 2026-09-20T05:40:29.642880Z

Period
93.85 min
Inclination
53.1578°
Eccentricity
0.0001153
Mean motion
15.34397326 rev/d
Perigee alt
461.9 km
Apogee alt
463.5 km
Semi-major
6,840.8 km
B*
1.5273e-4
RAAN
266.5909°
Arg perigee
87.6914°
Mean anomaly
272.4221°
Rev number
7,486

§ Raw data

STARLINK-339171 64181U 25113M   26263.23645420  .00004787  00000+0  15273-3 0  99932 64181  53.1578 266.5909 0001153  87.6914 272.4221 15.34397326 74861

JSON: /api/v1/satellites/64181 · /tle

For live sub-satellite position, see the globe view (requires WebGL).

§ Visibility from observer

Set your observer location to see the next 7 days of passes ≥ 10°. The values pass through the URL so the page stays shareable.

No JS? Fill the form by hand. The geolocation button needs JavaScript.